Location: Arrington
(35.8681°N, 86.7092°W)
Time: 09:04:01
(UTC+00:00)

STARLINK 1019 - Pass Details

Date: 23 November 2019
Orbit: 344 x 355 km, 53.0° (Epoch: 07 December)

Event Time Altitude Azimuth Distance (km) Brightness Sun altitude
Exits shadow 11:23:36 18° 237° (WSW) 944 4.4 -13.6°
Maximum altitude 11:25:36 66° 317° (NW) 389 2.6 -13.2°
Drops below altitude 10° 11:28:32 10° 41° (NE) 1,326 5.9 -12.6°
Sets 11:30:34 0° 44° (NE) 2,174 7.1 -12.3°
